#timestamp,LO_Frequency,Hit,StdDev 
1622300415.9,286047000.7,N
1622300435.7,286047000.6,N
1622300455.5,286047002.8,N
1622300475.4,286047002.8,N
1622300495.2,286046998.1,N
1622300515.1,286047000.1,N
1622300516.0,286047000.1,N
1622300535.8,286047001.3,N
1622300555.6,286047002.1,N
1622300575.5,286047003.7,N
1622300595.3,286047000.3,N
1622300615.1,286046996.7,N
1622300635.9,286046998.2,N
1622300655.7,286047000.1,N
1622300675.6,286047001.6,N
1622300695.4,286047002.6,N
1622300715.2,286047002.3,N
1622300735.1,286047000.4,N
1622300736.0,286047000.4,N
1622300755.8,286047002.1,N
1622300775.7,286047003.6,N
1622300795.5,286047001.7,N
1622300815.3,286047004.2,N
1622300835.2,286047001.4,N
1622300855.0,286046999.8,N
1622300855.9,286046999.8,N
1622300875.8,286046998.2,N
1622300895.6,286046998.2,N
1622300915.4,286047001.2,N
1622300935.3,286046998.4,N
1622300955.1,286047000.6,N
1622300975.8,286046998.2,N
1622300995.7,286047000.5,N
1622301015.5,286047000.1,N
1622301035.4,286047000.0,N
1622301055.2,286047000.9,N
1622301075.0,286046996.6,N
1622301075.9,286046996.6,N
1622301095.8,286046995.1,N
1622301115.6,286046993.4,Y
1622301135.4,286046995.9,P
1622301155.3,286046993.5,P
1622301175.1,286046995.4,N
1622301195.9,286046996.4,N
1622301215.7,286046993.4,Y
1622301235.5,286046997.2,P
1622301255.4,286046995.2,P
1622301275.2,286046996.1,P
1622301295.0,286046996.0,Y
1622301296.0,286046996.0,P
1622301315.8,286046999.5,P
1622301335.6,286046999.4,N
1622301355.5,286046996.5,N
1622301375.3,286046997.7,N
1622301395.1,286046997.0,N
1622301415.9,286046999.3,N
1622301435.7,286046997.0,N
1622301455.6,286046996.6,N
1622301475.4,286047000.6,N
1622301495.2,286046999.8,N
1622301515.1,286046999.8,N
1622301546.0,286047001.7,E
1622301555.0,286047002.0,N
1622301555.9,286047002.0,P
1622301575.8,286046998.6,P
1622301595.6,286046997.0,N
1622301615.4,286047000.8,N
1622301635.3,286047000.4,N
1622301655.1,286047002.2,N
1622301675.8,286047000.3,N
1622301695.7,286046998.5,N
1622301715.5,286046996.6,N
1622301735.4,286047000.7,N
1622301755.2,286047001.1,N
1622301775.0,286046999.0,N
1622301775.9,286046999.0,N
1622301795.8,286047001.1,N
1622301815.6,286047000.2,N
1622301835.4,286047002.6,N
1622301855.3,286047001.7,N
1622301875.1,286046999.8,N
1622301895.9,286047000.9,N
1622301915.7,286046998.9,N
1622301935.5,286046996.6,N
1622301955.4,286046997.0,N
1622301975.2,286046996.7,N
1622301995.0,286046996.9,N
1622301995.9,286046996.9,N
1622302015.8,286046999.0,N
1622302035.6,286047000.1,N
1622302055.5,286047001.9,N
1622302075.3,286047002.5,N
1622302095.1,286046998.4,N
1622302115.9,286046999.7,N
1622302135.7,286047002.0,N
1622302155.5,286047000.6,N
1622302175.4,286047000.4,N
1622302195.2,286047001.0,N
1622302215.1,286046999.8,N
1622302235.9,286047003.5,N
1622302255.7,286047004.2,N
1622302275.5,286047006.0,N
1622302295.4,286047004.2,N
1622302315.2,286047006.0,N
1622302335.1,286047001.9,N
1622302336.0,286047001.9,N
1622302355.8,286047002.1,N
1622302375.6,286047000.1,N
1622302395.5,286047003.3,N
1622302415.3,286047005.1,N
1622302435.2,286047005.1,N
1622302455.0,286047005.5,N
1622302455.9,286047005.5,N
1622302475.7,286047001.6,N
1622302495.6,286047001.6,N
1622302515.4,286047002.0,N
1622302535.3,286047001.7,N
1622302555.1,286047001.8,N
1622302575.8,286047002.2,N
1622302595.7,286047003.8,N
1622302615.5,286047002.6,N
1622302635.4,286047002.3,N
1622302655.2,286047000.4,N
1622302675.0,286047004.4,N
1622302675.9,286047004.4,N
1622302695.8,286047003.7,N
1622302715.6,286047004.1,N
1622302735.4,286047003.6,N
1622302755.3,286047003.2,N
1622302775.1,286047003.3,N
1622302795.9,286047004.6,N
1622302815.7,286047004.8,Y
1622302835.5,286047001.9,P
1622302855.4,286047002.5,P
1622302875.2,286047001.7,N
1622302895.1,286047000.7,N
1622302896.0,286047000.7,N
1622302915.8,286046998.5,N
1622302935.6,286046999.7,N
1622302955.5,286047000.1,N
1622302975.3,286047002.7,N
1622302995.1,286046999.7,N
1622303015.9,286047002.1,N
1622303035.7,286047000.6,N
1622303055.6,286047000.8,N
1622303075.4,286046998.5,N
1622303095.2,286047001.6,N
1622303115.1,286046999.7,N
1622303116.0,286046999.7,N
1622303135.8,286047000.4,N
1622303155.6,286047002.2,N
1622303175.5,286047002.8,N
1622303195.3,286046999.4,N
1622303215.2,286046997.3,N
1622303235.9,286046996.7,N
1622303255.7,286046999.3,N
1622303275.6,286046999.2,N
1622303295.4,286046996.7,N
1622303315.2,286046996.8,N
1622303335.1,286046996.5,N
1622303336.0,286046996.5,N
1622303355.8,286046997.5,N
1622303375.7,286046997.9,N
1622303395.5,286046995.5,N
1622303415.3,286046997.2,N
1622303435.2,286046996.6,N
1622303455.0,286046998.6,N
1622303455.9,286046998.6,N
1622303475.8,286046999.8,N
1622303495.6,286046999.9,N
1622303515.4,286047001.2,N
1622303535.3,286046997.8,N
1622303555.1,286046997.7,N
1622303575.8,286046998.5,N
1622303595.7,286046997.8,N
1622303615.5,286046995.0,N
1622303635.4,286046996.9,N
1622303655.2,286046996.9,N
1622303675.0,286046999.4,N
1622303675.9,286046999.4,N
1622303695.8,286046997.1,N
1622303715.6,286046999.3,N
1622303735.4,286046998.1,N
1622303755.3,286047000.2,N
1622303775.1,286047000.3,N
1622303795.9,286047000.7,N
1622303815.7,286047000.9,N
1622303835.5,286046997.3,N
1622303855.4,286046999.3,N
1622303875.2,286047000.3,N
1622303895.0,286046998.7,N
1622303895.9,286046998.7,N
1622303915.8,286046996.5,N
1622303935.6,286046999.2,N
1622303955.5,286046996.7,N
1622303975.3,286046997.6,N
1622303995.1,286046996.5,N
